This is the latest recevied weather packets stored in our database for station/object KC4JIR. If no packets are shown the sender has not sent any weather packets the latest 10 day(s).
| Time | Temp. | Humidity | Pressure | Rain* | Wind** | Luminosity | Snow |
|---|---|---|---|---|---|---|---|
| 1778001164 | 26.67° C | 51% | 1013.9 hPa | 0 mm | - | 122 W/m² | - |
| 1778000861 | 27.22° C | 50% | 1014.1 hPa | 0 mm | - | 498 W/m² | - |
| 1778000558 | 26.11° C | 52% | 1013.9 hPa | 0 mm | - | 830 W/m² | - |
| 1778000253 | 26.67° C | 52% | 1014 hPa | 0 mm | - | 828 W/m² | - |
| 1777999949 | 26.11° C | 53% | 1014.4 hPa | 0 mm | - | 766 W/m² | - |
| 1777999644 | 26.11° C | 53% | 1014.1 hPa | 0 mm | - | 742 W/m² | - |
| 1777999342 | 26.67° C | 52% | 1014.1 hPa | 0 mm | - | 727 W/m² | - |
| 1777999040 | 26.67° C | 55% | 1014.1 hPa | 0 mm | - | 751 W/m² | - |
| 1777998739 | 26.11° C | 51% | 1014.4 hPa | 0 mm | - | 711 W/m² | - |
| 1777998435 | 25.56° C | 52% | 1014.5 hPa | 0 mm | - | 737 W/m² | - |
| 1777998132 | 26.11° C | 53% | 1014.5 hPa | 0 mm | - | 725 W/m² | - |
| 1777997829 | 25.56° C | 55% | 1014.5 hPa | 0 mm | - | 672 W/m² | - |
| 1777997527 | 25.56° C | 56% | 1014.5 hPa | 0 mm | - | 698 W/m² | - |
| 1777997224 | 25° C | 57% | 1014.5 hPa | 0 mm | - | 786 W/m² | - |
| 1777996922 | 25° C | 60% | 1014.6 hPa | 0 mm | - | 838 W/m² | - |
| 1777996618 | 25° C | 58% | 1014.8 hPa | 0 mm | - | 850 W/m² | - |
| 1777996314 | 25° C | 60% | 1014.5 hPa | 0 mm | - | 862 W/m² | - |
| 1777996010 | 24.44° C | 61% | 1014.7 hPa | 0 mm | - | 863 W/m² | - |
| 1777995707 | 25° C | 59% | 1014.6 hPa | 0 mm | - | 867 W/m² | - |
| 1777995404 | 25° C | 59% | 1014.7 hPa | 0 mm | - | 867 W/m² | - |
| 1777995101 | 23.89° C | 63% | 1014.8 hPa | 0 mm | - | 908 W/m² | - |
| 1777994798 | 23.89° C | 62% | 1014.7 hPa | 0 mm | - | 875 W/m² | - |
| 1777994493 | 23.89° C | 62% | 1014.8 hPa | 0 mm | - | 875 W/m² | - |
| 1777994189 | 23.89° C | 63% | 1014.5 hPa | 0 mm | - | 862 W/m² | - |
| 1777993886 | 23.89° C | 61% | 1014.6 hPa | 0 mm | - | 834 W/m² | - |
* Rain latest hour (hover to see other rain measurements)
** Current wind speed in m/s (hover to see current wind gust speed)